Zurück zum Katalog

COSMOS 1531

AktivNavigationPO
NORAD 14624·PAYLOAD·🇷🇺 Russia

Gestartet Jan 11, 1984 von Plesetsk Cosmodrome

Loading…

Nächste Überflüge (nächste 24 Stunden)

TLE

AktuellSource: Space-Track

Epoche: Sep 14, 2026, 18:27 UTC

1 14624U 84003A   26257.76901954  .00000043  00000-0  31052-4 0  9997
2 14624  82.9280  71.3424 0018770 218.2193 152.2907 13.72422388136789

Verfolge COSMOS 1531 in Echtzeit mit AllMySat

Download on the App Store